Year,Month,Day,Hour,Minute,Value (Times are PST for windgust in km/hr)
2005,08,28,00,00,0.00
2005,08,28,00,01,0.00
2005,08,28,00,02,0.00
2005,08,28,00,03,0.00
2005,08,28,00,04,0.00
2005,08,28,00,05,0.00
2005,08,28,00,06,0.00
2005,08,28,00,07,0.00
2005,08,28,00,08,0.00
2005,08,28,00,09,0.00
2005,08,28,00,10,0.00
2005,08,28,00,11,0.00
2005,08,28,00,12,0.00
2005,08,28,00,13,0.00
2005,08,28,00,14,0.00
2005,08,28,00,15,0.00
2005,08,28,00,16,0.00
2005,08,28,00,17,0.00
2005,08,28,00,18,0.00
2005,08,28,00,19,1.60
2005,08,28,00,20,3.20
2005,08,28,00,21,0.00
2005,08,28,00,22,0.00
2005,08,28,00,23,1.60
2005,08,28,00,24,0.00
2005,08,28,00,25,0.00
2005,08,28,00,26,0.00
2005,08,28,00,27,3.20
2005,08,28,00,28,3.20
2005,08,28,00,29,3.20
2005,08,28,00,30,3.20
2005,08,28,00,31,1.60
2005,08,28,00,32,1.60
2005,08,28,00,33,1.60
2005,08,28,00,34,3.20
2005,08,28,00,35,3.20
2005,08,28,00,36,3.20
2005,08,28,00,37,0.00
2005,08,28,00,38,1.60
2005,08,28,00,39,4.80
2005,08,28,00,40,1.60
2005,08,28,00,41,0.00
2005,08,28,00,42,0.00
2005,08,28,00,43,1.60
2005,08,28,00,44,1.60
2005,08,28,00,45,0.00
2005,08,28,00,46,0.00
2005,08,28,00,47,0.00
2005,08,28,00,48,0.00
2005,08,28,00,49,0.00
2005,08,28,00,50,0.00
2005,08,28,00,51,0.00
2005,08,28,00,52,0.00
2005,08,28,00,53,0.00
2005,08,28,00,54,0.00
2005,08,28,00,55,0.00
2005,08,28,00,56,3.20
2005,08,28,00,57,3.20
2005,08,28,00,58,1.60
2005,08,28,00,59,1.60
2005,08,28,01,00,3.20
2005,08,28,01,01,4.80
2005,08,28,01,02,1.60
2005,08,28,01,03,0.00
2005,08,28,01,04,0.00
2005,08,28,01,05,3.20
2005,08,28,01,06,1.60
2005,08,28,01,07,0.00
2005,08,28,01,08,0.00
2005,08,28,01,09,0.00
2005,08,28,01,10,0.00
2005,08,28,01,11,0.00
2005,08,28,01,12,0.00
2005,08,28,01,13,0.00
2005,08,28,01,14,0.00
2005,08,28,01,15,0.00
2005,08,28,01,16,0.00
2005,08,28,01,17,0.00
2005,08,28,01,18,0.00
2005,08,28,01,19,0.00
2005,08,28,01,20,0.00
2005,08,28,01,21,0.00
2005,08,28,01,22,0.00
2005,08,28,01,23,0.00
2005,08,28,01,24,0.00
2005,08,28,01,25,0.00
2005,08,28,01,26,0.00
2005,08,28,01,27,0.00
2005,08,28,01,28,0.00
2005,08,28,01,29,0.00
2005,08,28,01,30,0.00
2005,08,28,01,31,0.00
2005,08,28,01,32,0.00
2005,08,28,01,33,0.00
2005,08,28,01,34,0.00
2005,08,28,01,35,0.00
2005,08,28,01,36,0.00
2005,08,28,01,37,0.00
2005,08,28,01,38,0.00
2005,08,28,01,39,0.00
2005,08,28,01,40,0.00
2005,08,28,01,41,0.00
2005,08,28,01,42,0.00
2005,08,28,01,43,0.00
2005,08,28,01,44,0.00
2005,08,28,01,45,0.00
2005,08,28,01,46,1.60
2005,08,28,01,47,3.20
2005,08,28,01,48,3.20
2005,08,28,01,49,3.20
2005,08,28,01,50,4.80
2005,08,28,01,51,3.20
2005,08,28,01,52,4.80
2005,08,28,01,53,3.20
2005,08,28,01,54,4.80
2005,08,28,01,55,6.40
2005,08,28,01,56,6.40
2005,08,28,01,57,6.40
2005,08,28,01,58,6.40
2005,08,28,01,59,6.40
2005,08,28,02,00,3.20
2005,08,28,02,01,3.20
2005,08,28,02,02,0.00
2005,08,28,02,03,3.20
2005,08,28,02,04,1.60
2005,08,28,02,05,0.00
2005,08,28,02,06,0.00
2005,08,28,02,07,0.00
2005,08,28,02,08,0.00
2005,08,28,02,09,3.20
2005,08,28,02,10,1.60
2005,08,28,02,11,1.60
2005,08,28,02,12,1.60
2005,08,28,02,13,1.60
2005,08,28,02,14,3.20
2005,08,28,02,15,4.80
2005,08,28,02,16,3.20
2005,08,28,02,17,3.20
2005,08,28,02,18,3.20
2005,08,28,02,19,3.20
2005,08,28,02,20,1.60
2005,08,28,02,21,1.60
2005,08,28,02,22,0.00
2005,08,28,02,23,3.20
2005,08,28,02,24,3.20
2005,08,28,02,25,3.20
2005,08,28,02,26,1.60
2005,08,28,02,27,0.00
2005,08,28,02,28,1.60
2005,08,28,02,29,1.60
2005,08,28,02,30,4.80
2005,08,28,02,31,4.80
2005,08,28,02,32,4.80
2005,08,28,02,33,3.20
2005,08,28,02,34,1.60
2005,08,28,02,35,0.00
2005,08,28,02,36,1.60
2005,08,28,02,37,1.60
2005,08,28,02,38,0.00
2005,08,28,02,39,3.20
2005,08,28,02,40,1.60
2005,08,28,02,41,1.60
2005,08,28,02,42,3.20
2005,08,28,02,43,1.60
2005,08,28,02,44,3.20
2005,08,28,02,45,6.40
2005,08,28,02,46,9.60
2005,08,28,02,47,4.80
2005,08,28,02,48,4.80
2005,08,28,02,49,3.20
2005,08,28,02,50,4.80
2005,08,28,02,51,8.10
2005,08,28,02,52,6.40
2005,08,28,02,53,6.40
2005,08,28,02,54,3.20
2005,08,28,02,55,6.40
2005,08,28,02,56,6.40
2005,08,28,02,57,6.40
2005,08,28,02,58,6.40
2005,08,28,02,59,4.80
2005,08,28,03,00,4.80
2005,08,28,03,01,4.80
2005,08,28,03,02,4.80
2005,08,28,03,03,8.10
2005,08,28,03,04,6.40
2005,08,28,03,05,4.80
2005,08,28,03,06,4.80
2005,08,28,03,07,4.80
2005,08,28,03,08,4.80
2005,08,28,03,09,6.40
2005,08,28,03,10,4.80
2005,08,28,03,11,0.00
2005,08,28,03,12,1.60
2005,08,28,03,13,1.60
2005,08,28,03,14,0.00
2005,08,28,03,15,1.60
2005,08,28,03,16,6.40
2005,08,28,03,17,4.80
2005,08,28,03,18,3.20
2005,08,28,03,19,4.80
2005,08,28,03,20,4.80
2005,08,28,03,21,4.80
2005,08,28,03,22,3.20
2005,08,28,03,23,3.20
2005,08,28,03,24,6.40
2005,08,28,03,25,4.80
2005,08,28,03,26,4.80
2005,08,28,03,27,3.20
2005,08,28,03,28,0.00
2005,08,28,03,29,3.20
2005,08,28,03,30,0.00
2005,08,28,03,31,3.20
2005,08,28,03,32,1.60
2005,08,28,03,33,4.80
2005,08,28,03,34,4.80
2005,08,28,03,35,6.40
2005,08,28,03,36,8.10
2005,08,28,03,37,6.40
2005,08,28,03,38,8.10
2005,08,28,03,39,6.40
2005,08,28,03,40,6.40
2005,08,28,03,41,4.80
2005,08,28,03,42,4.80
2005,08,28,03,43,4.80
2005,08,28,03,44,4.80
2005,08,28,03,45,3.20
2005,08,28,03,46,4.80
2005,08,28,03,47,4.80
2005,08,28,03,48,4.80
2005,08,28,03,49,3.20
2005,08,28,03,50,0.00
2005,08,28,03,51,0.00
2005,08,28,03,52,0.00
2005,08,28,03,53,1.60
2005,08,28,03,54,3.20
2005,08,28,03,55,3.20
2005,08,28,03,56,3.20
2005,08,28,03,57,0.00
2005,08,28,03,58,0.00
2005,08,28,03,59,0.00
2005,08,28,04,00,0.00
2005,08,28,04,01,0.00
2005,08,28,04,02,0.00
2005,08,28,04,03,0.00
2005,08,28,04,04,0.00
2005,08,28,04,05,0.00
2005,08,28,04,06,0.00
2005,08,28,04,07,0.00
2005,08,28,04,08,3.20
2005,08,28,04,09,4.80
2005,08,28,04,10,4.80
2005,08,28,04,11,3.20
2005,08,28,04,12,6.40
2005,08,28,04,13,6.40
2005,08,28,04,14,8.10
2005,08,28,04,15,9.60
2005,08,28,04,16,4.80
2005,08,28,04,17,6.40
2005,08,28,04,18,1.60
2005,08,28,04,19,0.00
2005,08,28,04,20,0.00
2005,08,28,04,21,1.60
2005,08,28,04,22,3.20
2005,08,28,04,23,4.80
2005,08,28,04,24,4.80
2005,08,28,04,25,4.80
2005,08,28,04,26,8.10
2005,08,28,04,27,9.60
2005,08,28,04,28,11.30
2005,08,28,04,29,8.10
2005,08,28,04,30,11.30
2005,08,28,04,31,8.10
2005,08,28,04,32,11.30
2005,08,28,04,33,12.90
2005,08,28,04,34,12.90
2005,08,28,04,35,11.30
2005,08,28,04,36,8.10
2005,08,28,04,37,8.10
2005,08,28,04,38,6.40
2005,08,28,04,39,9.60
2005,08,28,04,40,11.30
2005,08,28,04,41,8.10
2005,08,28,04,42,8.10
2005,08,28,04,43,11.30
2005,08,28,04,44,9.60
2005,08,28,04,45,11.30
2005,08,28,04,46,8.10
2005,08,28,04,47,8.10
2005,08,28,04,48,4.80
2005,08,28,04,49,6.40
2005,08,28,04,50,8.10
2005,08,28,04,51,11.30
2005,08,28,04,52,8.10
2005,08,28,04,53,6.40
2005,08,28,04,54,11.30
2005,08,28,04,55,9.60
2005,08,28,04,56,6.40
2005,08,28,04,57,4.80
2005,08,28,04,58,9.60
2005,08,28,04,59,8.10
2005,08,28,05,00,11.30
2005,08,28,05,01,8.10
2005,08,28,05,02,6.40
2005,08,28,05,03,9.60
2005,08,28,05,04,9.60
2005,08,28,05,05,9.60
2005,08,28,05,06,8.10
2005,08,28,05,07,8.10
2005,08,28,05,08,8.10
2005,08,28,05,09,6.40
2005,08,28,05,10,9.60
2005,08,28,05,11,9.60
2005,08,28,05,12,9.60
2005,08,28,05,13,8.10
2005,08,28,05,14,9.60
2005,08,28,05,15,8.10
2005,08,28,05,16,4.80
2005,08,28,05,17,6.40
2005,08,28,05,18,4.80
2005,08,28,05,19,6.40
2005,08,28,05,20,6.40
2005,08,28,05,21,0.00
2005,08,28,05,22,4.80
2005,08,28,05,23,6.40
2005,08,28,05,24,6.40
2005,08,28,05,25,6.40
2005,08,28,05,26,8.10
2005,08,28,05,27,8.10
2005,08,28,05,28,6.40
2005,08,28,05,29,4.80
2005,08,28,05,30,6.40
2005,08,28,05,31,6.40
2005,08,28,05,32,8.10
2005,08,28,05,33,6.40
2005,08,28,05,34,9.60
2005,08,28,05,35,9.60
2005,08,28,05,36,9.60
2005,08,28,05,37,11.30
2005,08,28,05,38,6.40
2005,08,28,05,39,9.60
2005,08,28,05,40,6.40
2005,08,28,05,41,9.60
2005,08,28,05,42,9.60
2005,08,28,05,43,9.60
2005,08,28,05,44,11.30
2005,08,28,05,45,8.10
2005,08,28,05,46,6.40
2005,08,28,05,47,9.60
2005,08,28,05,48,9.60
2005,08,28,05,49,6.40
2005,08,28,05,50,8.10
2005,08,28,05,51,9.60
2005,08,28,05,52,6.40
2005,08,28,05,53,3.20
2005,08,28,05,54,8.10
2005,08,28,05,55,4.80
2005,08,28,05,56,4.80
2005,08,28,05,57,4.80
2005,08,28,05,58,6.40
2005,08,28,05,59,8.10
2005,08,28,06,00,8.10
2005,08,28,06,01,9.60
2005,08,28,06,02,8.10
2005,08,28,06,03,9.60
2005,08,28,06,04,9.60
2005,08,28,06,05,9.60
2005,08,28,06,06,8.10
2005,08,28,06,07,9.60
2005,08,28,06,08,9.60
2005,08,28,06,09,9.60
2005,08,28,06,10,8.10
2005,08,28,06,11,12.90
2005,08,28,06,12,9.60
2005,08,28,06,13,11.30
2005,08,28,06,14,8.10
2005,08,28,06,15,8.10
2005,08,28,06,16,6.40
2005,08,28,06,17,8.10
2005,08,28,06,18,8.10
2005,08,28,06,19,4.80
2005,08,28,06,20,6.40
2005,08,28,06,21,6.40
2005,08,28,06,22,6.40
2005,08,28,06,23,6.40
2005,08,28,06,24,4.80
2005,08,28,06,25,4.80
2005,08,28,06,26,4.80
2005,08,28,06,27,4.80
2005,08,28,06,28,4.80
2005,08,28,06,29,3.20
2005,08,28,06,30,1.60
2005,08,28,06,31,3.20
2005,08,28,06,32,4.80
2005,08,28,06,33,4.80
2005,08,28,06,34,6.40
2005,08,28,06,35,4.80
2005,08,28,06,36,0.00
2005,08,28,06,37,0.00
2005,08,28,06,38,3.20
2005,08,28,06,39,3.20
2005,08,28,06,40,1.60
2005,08,28,06,41,1.60
2005,08,28,06,42,0.00
2005,08,28,06,43,1.60
2005,08,28,06,44,1.60
2005,08,28,06,45,1.60
2005,08,28,06,46,4.80
2005,08,28,06,47,3.20
2005,08,28,06,48,4.80
2005,08,28,06,49,3.20
2005,08,28,06,50,0.00
2005,08,28,06,51,3.20
2005,08,28,06,52,6.40
2005,08,28,06,53,6.40
2005,08,28,06,54,6.40
2005,08,28,06,55,1.60
2005,08,28,06,56,0.00
2005,08,28,06,57,0.00
2005,08,28,06,58,0.00
2005,08,28,06,59,0.00
2005,08,28,07,00,0.00
2005,08,28,07,01,0.00
2005,08,28,07,02,3.20
2005,08,28,07,03,3.20
2005,08,28,07,04,3.20
2005,08,28,07,05,4.80
2005,08,28,07,06,3.20
2005,08,28,07,07,0.00
2005,08,28,07,08,4.80
2005,08,28,07,09,12.90
2005,08,28,07,10,11.30
2005,08,28,07,11,1.60
2005,08,28,07,12,0.00
2005,08,28,07,13,1.60
2005,08,28,07,14,6.40
2005,08,28,07,15,1.60
2005,08,28,07,16,3.20
2005,08,28,07,17,8.10
2005,08,28,07,18,3.20
2005,08,28,07,19,1.60
2005,08,28,07,20,4.80
2005,08,28,07,21,3.20
2005,08,28,07,22,1.60
2005,08,28,07,23,3.20
2005,08,28,07,24,3.20
2005,08,28,07,25,3.20
2005,08,28,07,26,0.00
2005,08,28,07,27,0.00
2005,08,28,07,28,1.60
2005,08,28,07,29,0.00
2005,08,28,07,30,0.00
2005,08,28,07,31,0.00
2005,08,28,07,32,0.00
2005,08,28,07,33,0.00
2005,08,28,07,34,0.00
2005,08,28,07,35,0.00
2005,08,28,07,36,0.00
2005,08,28,07,37,1.60
2005,08,28,07,38,0.00
2005,08,28,07,39,4.80
2005,08,28,07,40,4.80
2005,08,28,07,41,1.60
2005,08,28,07,42,1.60
2005,08,28,07,43,0.00
2005,08,28,07,44,0.00
2005,08,28,07,45,0.00
2005,08,28,07,46,0.00
2005,08,28,07,47,0.00
2005,08,28,07,48,0.00
2005,08,28,07,49,1.60
2005,08,28,07,50,4.80
2005,08,28,07,51,3.20
2005,08,28,07,52,0.00
2005,08,28,07,53,0.00
2005,08,28,07,54,3.20
2005,08,28,07,55,4.80
2005,08,28,07,56,6.40
2005,08,28,07,57,4.80
2005,08,28,07,58,4.80
2005,08,28,07,59,6.40
2005,08,28,08,00,6.40
2005,08,28,08,01,4.80
2005,08,28,08,02,9.60
2005,08,28,08,03,6.40
2005,08,28,08,04,6.40
2005,08,28,08,05,8.10
2005,08,28,08,06,8.10
2005,08,28,08,07,6.40
2005,08,28,08,08,4.80
2005,08,28,08,09,4.80
2005,08,28,08,10,6.40
2005,08,28,08,11,9.60
2005,08,28,08,12,6.40
2005,08,28,08,13,6.40
2005,08,28,08,14,6.40
2005,08,28,08,15,8.10
2005,08,28,08,16,8.10
2005,08,28,08,17,9.60
2005,08,28,08,18,8.10
2005,08,28,08,19,8.10
2005,08,28,08,20,6.40
2005,08,28,08,21,6.40
2005,08,28,08,22,6.40
2005,08,28,08,23,4.80
2005,08,28,08,24,4.80
2005,08,28,08,25,6.40
2005,08,28,08,26,8.10
2005,08,28,08,27,8.10
2005,08,28,08,28,4.80
2005,08,28,08,29,3.20
2005,08,28,08,30,6.40
2005,08,28,08,31,4.80
2005,08,28,08,32,6.40
2005,08,28,08,33,6.40
2005,08,28,08,34,3.20
2005,08,28,08,35,4.80
2005,08,28,08,36,8.10
2005,08,28,08,37,9.60
2005,08,28,08,38,6.40
2005,08,28,08,39,3.20
2005,08,28,08,40,6.40
2005,08,28,08,41,4.80
2005,08,28,08,42,6.40
2005,08,28,08,43,8.10
2005,08,28,08,44,8.10
2005,08,28,08,45,1.60
2005,08,28,08,46,0.00
2005,08,28,08,47,3.20
2005,08,28,08,48,4.80
2005,08,28,08,49,6.40
2005,08,28,08,50,6.40
2005,08,28,08,51,6.40
2005,08,28,08,52,6.40
2005,08,28,08,53,3.20
2005,08,28,08,54,6.40
2005,08,28,08,55,3.20
2005,08,28,08,56,1.60
2005,08,28,08,57,6.40
2005,08,28,08,58,3.20
2005,08,28,08,59,1.60
2005,08,28,09,00,1.60
2005,08,28,09,01,0.00
2005,08,28,09,02,3.20
2005,08,28,09,03,4.80
2005,08,28,09,04,0.00
2005,08,28,09,05,1.60
2005,08,28,09,06,0.00
2005,08,28,09,07,0.00
2005,08,28,09,08,0.00
2005,08,28,09,09,3.20
2005,08,28,09,10,4.80
2005,08,28,09,11,3.20
2005,08,28,09,12,6.40
2005,08,28,09,13,6.40
2005,08,28,09,14,9.60
2005,08,28,09,15,8.10
2005,08,28,09,16,8.10
2005,08,28,09,17,3.20
2005,08,28,09,18,4.80
2005,08,28,09,19,3.20
2005,08,28,09,20,0.00
2005,08,28,09,21,3.20
2005,08,28,09,22,4.80
2005,08,28,09,23,3.20
2005,08,28,09,24,1.60
2005,08,28,09,25,3.20
2005,08,28,09,26,6.40
2005,08,28,09,27,8.10
2005,08,28,09,28,6.40
2005,08,28,09,29,6.40
2005,08,28,09,30,6.40
2005,08,28,09,31,11.30
2005,08,28,09,32,12.90
2005,08,28,09,33,9.60
2005,08,28,09,34,11.30
2005,08,28,09,35,11.30
2005,08,28,09,36,9.60
2005,08,28,09,37,9.60
2005,08,28,09,38,9.60
2005,08,28,09,39,8.10
2005,08,28,09,40,6.40
2005,08,28,09,41,8.10
2005,08,28,09,42,8.10
2005,08,28,09,43,8.10
2005,08,28,09,44,4.80
2005,08,28,09,45,9.60
2005,08,28,09,46,8.10
2005,08,28,09,47,4.80
2005,08,28,09,48,8.10
2005,08,28,09,49,4.80
2005,08,28,09,50,11.30
2005,08,28,09,51,8.10
2005,08,28,09,52,11.30
2005,08,28,09,53,12.90
2005,08,28,09,54,11.30
2005,08,28,09,55,11.30
2005,08,28,09,56,11.30
2005,08,28,09,57,9.60
2005,08,28,09,58,8.10
2005,08,28,09,59,8.10
2005,08,28,10,00,9.60
2005,08,28,10,01,8.10
2005,08,28,10,02,11.30
2005,08,28,10,03,8.10
2005,08,28,10,04,8.10
2005,08,28,10,05,3.20
2005,08,28,10,06,6.40
2005,08,28,10,07,8.10
2005,08,28,10,08,6.40
2005,08,28,10,09,6.40
2005,08,28,10,10,9.60
2005,08,28,10,11,8.10
2005,08,28,10,12,11.30
2005,08,28,10,13,11.30
2005,08,28,10,14,9.60
2005,08,28,10,15,9.60
2005,08,28,10,16,8.10
2005,08,28,10,17,6.40
2005,08,28,10,18,8.10
2005,08,28,10,19,11.30
2005,08,28,10,20,8.10
2005,08,28,10,21,11.30
2005,08,28,10,22,11.30
2005,08,28,10,23,12.90
2005,08,28,10,24,9.60
2005,08,28,10,25,8.10
2005,08,28,10,26,6.40
2005,08,28,10,27,8.10
2005,08,28,10,28,8.10
2005,08,28,10,29,8.10
2005,08,28,10,30,11.30
2005,08,28,10,31,8.10
2005,08,28,10,32,6.40
2005,08,28,10,33,16.10
2005,08,28,10,34,9.60
2005,08,28,10,35,8.10
2005,08,28,10,36,8.10
2005,08,28,10,37,9.60
2005,08,28,10,38,9.60
2005,08,28,10,39,9.60
2005,08,28,10,40,11.30
2005,08,28,10,41,11.30
2005,08,28,10,42,8.10
2005,08,28,10,43,8.10
2005,08,28,10,44,9.60
2005,08,28,10,45,8.10
2005,08,28,10,46,8.10
2005,08,28,10,47,8.10
2005,08,28,10,48,9.60
2005,08,28,10,49,9.60
2005,08,28,10,50,8.10
2005,08,28,10,51,9.60
2005,08,28,10,52,9.60
2005,08,28,10,53,6.40
2005,08,28,10,54,16.10
2005,08,28,10,55,11.30
2005,08,28,10,56,11.30
2005,08,28,10,57,6.40
2005,08,28,10,58,9.60
2005,08,28,10,59,8.10
2005,08,28,11,00,9.60
2005,08,28,11,01,6.40
2005,08,28,11,02,4.80
2005,08,28,11,03,9.60
2005,08,28,11,04,11.30
2005,08,28,11,05,11.30
2005,08,28,11,06,12.90
2005,08,28,11,07,14.50
2005,08,28,11,08,14.50
2005,08,28,11,09,11.30
2005,08,28,11,10,11.30
2005,08,28,11,11,6.40
2005,08,28,11,12,12.90
2005,08,28,11,13,9.60
2005,08,28,11,14,9.60
2005,08,28,11,15,14.50
2005,08,28,11,16,14.50
2005,08,28,11,17,11.30
2005,08,28,11,18,9.60
2005,08,28,11,19,9.60
2005,08,28,11,20,9.60
2005,08,28,11,21,11.30
2005,08,28,11,22,11.30
2005,08,28,11,23,11.30
2005,08,28,11,24,16.10
2005,08,28,11,25,16.10
2005,08,28,11,26,9.60
2005,08,28,11,27,9.60
2005,08,28,11,28,11.30
2005,08,28,11,29,17.70
2005,08,28,11,30,16.10
2005,08,28,11,31,11.30
2005,08,28,11,32,12.90
2005,08,28,11,33,9.60
2005,08,28,11,34,11.30
2005,08,28,11,35,11.30
2005,08,28,11,36,16.10
2005,08,28,11,37,16.10
2005,08,28,11,38,16.10
2005,08,28,11,39,14.50
2005,08,28,11,40,11.30
2005,08,28,11,41,17.70
2005,08,28,11,42,17.70
2005,08,28,11,43,17.70
2005,08,28,11,44,12.90
2005,08,28,11,45,12.90
2005,08,28,11,46,14.50
2005,08,28,11,47,17.70
2005,08,28,11,48,11.30
2005,08,28,11,49,16.10
2005,08,28,11,50,14.50
2005,08,28,11,51,16.10
2005,08,28,11,52,16.10
2005,08,28,11,53,11.30
2005,08,28,11,54,16.10
2005,08,28,11,55,16.10
2005,08,28,11,56,16.10
2005,08,28,11,57,14.50
2005,08,28,11,58,17.70
2005,08,28,11,59,14.50
2005,08,28,12,00,14.50
2005,08,28,12,01,17.70
2005,08,28,12,02,16.10
2005,08,28,12,03,16.10
2005,08,28,12,04,16.10
2005,08,28,12,05,14.50
2005,08,28,12,06,17.70
2005,08,28,12,07,17.70
2005,08,28,12,08,16.10
2005,08,28,12,09,16.10
2005,08,28,12,10,16.10
2005,08,28,12,11,14.50
2005,08,28,12,12,16.10
2005,08,28,12,13,14.50
2005,08,28,12,14,19.30
2005,08,28,12,15,17.70
2005,08,28,12,16,14.50
2005,08,28,12,17,16.10
2005,08,28,12,18,19.30
2005,08,28,12,19,19.30
2005,08,28,12,20,14.50
2005,08,28,12,21,17.70
2005,08,28,12,22,14.50
2005,08,28,12,23,16.10
2005,08,28,12,24,17.70
2005,08,28,12,25,17.70
2005,08,28,12,26,17.70
2005,08,28,12,27,9.60
2005,08,28,12,28,11.30
2005,08,28,12,29,16.10
2005,08,28,12,30,16.10
2005,08,28,12,31,16.10
2005,08,28,12,32,11.30
2005,08,28,12,33,16.10
2005,08,28,12,34,17.70
2005,08,28,12,35,16.10
2005,08,28,12,36,16.10
2005,08,28,12,37,16.10
2005,08,28,12,38,19.30
2005,08,28,12,39,19.30
2005,08,28,12,40,17.70
2005,08,28,12,41,19.30
2005,08,28,12,42,17.70
2005,08,28,12,43,17.70
2005,08,28,12,44,17.70
2005,08,28,12,45,16.10
2005,08,28,12,46,16.10
2005,08,28,12,47,17.70
2005,08,28,12,48,14.50
2005,08,28,12,49,9.60
2005,08,28,12,50,17.70
2005,08,28,12,51,16.10
2005,08,28,12,52,16.10
2005,08,28,12,53,14.50
2005,08,28,12,54,16.10
2005,08,28,12,55,16.10
2005,08,28,12,56,11.30
2005,08,28,12,57,16.10
2005,08,28,12,58,11.30
2005,08,28,12,59,9.60
2005,08,28,13,00,14.50
2005,08,28,13,01,16.10
2005,08,28,13,02,12.90
2005,08,28,13,03,11.30
2005,08,28,13,04,12.90
2005,08,28,13,05,9.60
2005,08,28,13,06,14.50
2005,08,28,13,07,16.10
2005,08,28,13,08,14.50
2005,08,28,13,09,17.70
2005,08,28,13,10,16.10
2005,08,28,13,11,14.50
2005,08,28,13,12,16.10
2005,08,28,13,13,19.30
2005,08,28,13,14,17.70
2005,08,28,13,15,19.30
2005,08,28,13,16,14.50
2005,08,28,13,17,12.90
2005,08,28,13,18,11.30
2005,08,28,13,19,19.30
2005,08,28,13,20,17.70
2005,08,28,13,21,19.30
2005,08,28,13,22,20.90
2005,08,28,13,23,17.70
2005,08,28,13,24,16.10
2005,08,28,13,25,11.30
2005,08,28,13,26,16.10
2005,08,28,13,27,16.10
2005,08,28,13,28,9.60
2005,08,28,13,29,14.50
2005,08,28,13,30,14.50
2005,08,28,13,31,17.70
2005,08,28,13,32,16.10
2005,08,28,13,33,16.10
2005,08,28,13,34,16.10
2005,08,28,13,35,16.10
2005,08,28,13,36,12.90
2005,08,28,13,37,6.40
2005,08,28,13,38,14.50
2005,08,28,13,39,9.60
2005,08,28,13,40,11.30
2005,08,28,13,41,11.30
2005,08,28,13,42,17.70
2005,08,28,13,43,16.10
2005,08,28,13,44,17.70
2005,08,28,13,45,9.60
2005,08,28,13,46,8.10
2005,08,28,13,47,14.50
2005,08,28,13,48,11.30
2005,08,28,13,49,14.50
2005,08,28,13,50,8.10
2005,08,28,13,51,8.10
2005,08,28,13,52,9.60
2005,08,28,13,53,11.30
2005,08,28,13,54,14.50
2005,08,28,13,55,9.60
2005,08,28,13,56,8.10
2005,08,28,13,57,9.60
2005,08,28,13,58,11.30
2005,08,28,13,59,9.60
2005,08,28,14,00,6.40
2005,08,28,14,01,6.40
2005,08,28,14,02,8.10
2005,08,28,14,03,6.40
2005,08,28,14,04,6.40
2005,08,28,14,05,11.30
2005,08,28,14,06,8.10
2005,08,28,14,07,8.10
2005,08,28,14,08,8.10
2005,08,28,14,09,6.40
2005,08,28,14,10,8.10
2005,08,28,14,11,6.40
2005,08,28,14,12,4.80
2005,08,28,14,13,3.20
2005,08,28,14,14,6.40
2005,08,28,14,15,4.80
2005,08,28,14,16,6.40
2005,08,28,14,17,8.10
2005,08,28,14,18,6.40
2005,08,28,14,19,4.80
2005,08,28,14,20,6.40
2005,08,28,14,21,4.80
2005,08,28,14,22,6.40
2005,08,28,14,23,4.80
2005,08,28,14,24,4.80
2005,08,28,14,25,4.80
2005,08,28,14,26,8.10
2005,08,28,14,27,6.40
2005,08,28,14,28,6.40
2005,08,28,14,29,6.40
2005,08,28,14,30,3.20
2005,08,28,14,31,3.20
2005,08,28,14,32,6.40
2005,08,28,14,33,8.10
2005,08,28,14,34,3.20
2005,08,28,14,35,4.80
2005,08,28,14,36,4.80
2005,08,28,14,37,4.80
2005,08,28,14,38,8.10
2005,08,28,14,39,9.60
2005,08,28,14,40,8.10
2005,08,28,14,41,6.40
2005,08,28,14,42,4.80
2005,08,28,14,43,4.80
2005,08,28,14,44,4.80
2005,08,28,14,45,4.80
2005,08,28,14,46,3.20
2005,08,28,14,47,3.20
2005,08,28,14,48,11.30
2005,08,28,14,49,8.10
2005,08,28,14,50,6.40
2005,08,28,14,51,6.40
2005,08,28,14,52,6.40
2005,08,28,14,53,9.60
2005,08,28,14,54,8.10
2005,08,28,14,55,6.40
2005,08,28,14,56,4.80
2005,08,28,14,57,8.10
2005,08,28,14,58,8.10
2005,08,28,14,59,6.40
2005,08,28,15,00,8.10
2005,08,28,15,01,4.80
2005,08,28,15,02,4.80
2005,08,28,15,03,6.40
2005,08,28,15,04,8.10
2005,08,28,15,05,8.10
2005,08,28,15,06,6.40
2005,08,28,15,07,6.40
2005,08,28,15,08,8.10
2005,08,28,15,09,6.40
2005,08,28,15,10,8.10
2005,08,28,15,11,3.20
2005,08,28,15,12,8.10
2005,08,28,15,13,4.80
2005,08,28,15,14,6.40
2005,08,28,15,15,6.40
2005,08,28,15,16,4.80
2005,08,28,15,17,4.80
2005,08,28,15,18,6.40
2005,08,28,15,19,4.80
2005,08,28,15,20,1.60
2005,08,28,15,21,0.00
2005,08,28,15,22,1.60
2005,08,28,15,23,0.00
2005,08,28,15,24,3.20
2005,08,28,15,25,4.80
2005,08,28,15,26,3.20
2005,08,28,15,27,6.40
2005,08,28,15,28,6.40
2005,08,28,15,29,6.40
2005,08,28,15,30,6.40
2005,08,28,15,31,4.80
2005,08,28,15,32,4.80
2005,08,28,15,33,3.20
2005,08,28,15,34,4.80
2005,08,28,15,35,3.20
2005,08,28,15,36,6.40
2005,08,28,15,37,4.80
2005,08,28,15,38,6.40
2005,08,28,15,39,6.40
2005,08,28,15,40,4.80
2005,08,28,15,41,3.20
2005,08,28,15,42,6.40
2005,08,28,15,43,4.80
2005,08,28,15,44,4.80
2005,08,28,15,45,4.80
2005,08,28,15,46,6.40
2005,08,28,15,47,6.40
2005,08,28,15,48,8.10
2005,08,28,15,49,6.40
2005,08,28,15,50,6.40
2005,08,28,15,51,6.40
2005,08,28,15,52,4.80
2005,08,28,15,53,3.20
2005,08,28,15,54,1.60
2005,08,28,15,55,3.20
2005,08,28,15,56,9.60
2005,08,28,15,57,9.60
2005,08,28,15,58,12.90
2005,08,28,15,59,9.60
2005,08,28,16,00,6.40
2005,08,28,16,01,8.10
2005,08,28,16,02,6.40
2005,08,28,16,03,6.40
2005,08,28,16,04,14.50
2005,08,28,16,05,6.40
2005,08,28,16,06,8.10
2005,08,28,16,07,4.80
2005,08,28,16,08,9.60
2005,08,28,16,09,9.60
2005,08,28,16,10,9.60
2005,08,28,16,11,8.10
2005,08,28,16,12,9.60
2005,08,28,16,13,8.10
2005,08,28,16,14,9.60
2005,08,28,16,15,9.60
2005,08,28,16,16,6.40
2005,08,28,16,17,11.30
2005,08,28,16,18,9.60
2005,08,28,16,19,6.40
2005,08,28,16,20,8.10
2005,08,28,16,21,8.10
2005,08,28,16,22,6.40
2005,08,28,16,23,8.10
2005,08,28,16,24,9.60
2005,08,28,16,25,8.10
2005,08,28,16,26,8.10
2005,08,28,16,27,11.30
2005,08,28,16,28,9.60
2005,08,28,16,29,8.10
2005,08,28,16,30,4.80
2005,08,28,16,31,3.20
2005,08,28,16,32,4.80
2005,08,28,16,33,4.80
2005,08,28,16,34,6.40
2005,08,28,16,35,8.10
2005,08,28,16,36,9.60
2005,08,28,16,37,6.40
2005,08,28,16,38,6.40
2005,08,28,16,39,8.10
2005,08,28,16,40,6.40
2005,08,28,16,41,6.40
2005,08,28,16,42,6.40
2005,08,28,16,43,9.60
2005,08,28,16,44,8.10
2005,08,28,16,45,9.60
2005,08,28,16,46,9.60
2005,08,28,16,47,9.60
2005,08,28,16,48,6.40
2005,08,28,16,49,8.10
2005,08,28,16,50,9.60
2005,08,28,16,51,8.10
2005,08,28,16,52,9.60
2005,08,28,16,53,6.40
2005,08,28,16,54,9.60
2005,08,28,16,55,8.10
2005,08,28,16,56,8.10
2005,08,28,16,57,9.60
2005,08,28,16,58,8.10
2005,08,28,16,59,8.10
2005,08,28,17,00,6.40
2005,08,28,17,01,8.10
2005,08,28,17,02,8.10
2005,08,28,17,03,6.40
2005,08,28,17,04,6.40
2005,08,28,17,05,6.40
2005,08,28,17,06,8.10
2005,08,28,17,07,6.40
2005,08,28,17,08,8.10
2005,08,28,17,09,6.40
2005,08,28,17,10,6.40
2005,08,28,17,11,8.10
2005,08,28,17,12,6.40
2005,08,28,17,13,9.60
2005,08,28,17,14,8.10
2005,08,28,17,15,6.40
2005,08,28,17,16,8.10
2005,08,28,17,17,4.80
2005,08,28,17,18,3.20
2005,08,28,17,19,6.40
2005,08,28,17,20,4.80
2005,08,28,17,21,4.80
2005,08,28,17,22,4.80
2005,08,28,17,23,3.20
2005,08,28,17,24,6.40
2005,08,28,17,25,6.40
2005,08,28,17,26,4.80
2005,08,28,17,27,8.10
2005,08,28,17,28,8.10
2005,08,28,17,29,8.10
2005,08,28,17,30,8.10
2005,08,28,17,31,8.10
2005,08,28,17,32,6.40
2005,08,28,17,33,8.10
2005,08,28,17,34,4.80
2005,08,28,17,35,8.10
2005,08,28,17,36,9.60
2005,08,28,17,37,9.60
2005,08,28,17,38,8.10
2005,08,28,17,39,4.80
2005,08,28,17,40,8.10
2005,08,28,17,41,8.10
2005,08,28,17,42,6.40
2005,08,28,17,43,8.10
2005,08,28,17,44,8.10
2005,08,28,17,45,8.10
2005,08,28,17,46,4.80
2005,08,28,17,47,6.40
2005,08,28,17,48,4.80
2005,08,28,17,49,4.80
2005,08,28,17,50,1.60
2005,08,28,17,51,3.20
2005,08,28,17,52,4.80
2005,08,28,17,53,4.80
2005,08,28,17,54,3.20
2005,08,28,17,55,4.80
2005,08,28,17,56,6.40
2005,08,28,17,57,6.40